Zurück zum Katalog

STARLINK-3966

AktivKommunikationVLEO
NORAD 52552·PAYLOAD·🇺🇸 United States

Gestartet May 13, 2022 von Vandenberg Space Force Base

Loading…

Nächste Überflüge (nächste 24 Stunden)

TLE

AktuellSource: CelesTrak SupGP

Epoche: Sep 15, 2026, 01:26 UTC

1 52552C 22051V   26258.06020833  .00031412  00000+0  10109-2 0  2585
2 52552  53.1593 347.1160 0000860  74.3207  86.3825 15.31660908    18

Verfolge STARLINK-3966 in Echtzeit mit AllMySat

Download on the App Store